Bad Axe, MI

3:25 PM EDT on July 22, 2017 (GMT -0400)
Huron County Memorial

Weather History for KBAX - October, 2012

Change the Weather History Date:

Monday, October 8, 2012

  Actual Average (KP58) Record (KP58)
Temperature  
Mean Temperature 41 °F -  
Max Temperature 54 °F 61 °F 88 °F (2007)
Min Temperature 28 °F 46 °F 30 °F (2001)
Degree Days  
Heating Degree Days 24    
Moisture  
Dew Point 30 °F    
Average Humidity 66    
Maximum Humidity 93    
Minimum Humidity 34    
Precipitation  
Precipitation 0.00 in - - ()
Sea Level Pressure  
Sea Level Pressure 30.12 in    
Wind  
Wind Speed 6 mph (SSW)    
Max Wind Speed 14 mph    
Max Gust Speed 22 mph    
Visibility 10 miles    
Events      
Averages and records for this station are not official NWS values.
T = Trace of Precipitation, MM = Missing Value Source: NWS Daily Summary

Daily Weather History Graph

Daily Weather History Graph

Search for Another Location

Airport or City:

Trip Planner

Search our weather history database for the weather conditions in past years. The results will help you decide how hot, cold, wet, or windy it might be!

Date:

Astronomy

Oct. 08, 2012 Rise Set
Actual Time 7:38 AM EDT 6:59 PM EDT
Civil Twilight 7:09 AM EDT 7:28 PM EDT
Nautical Twilight 6:36 AM EDT 8:01 PM EDT
Astronomical Twilight 6:02 AM EDT 8:34 PM EDT
Moon 12:04 AM EDT (10/8) 3:00 PM EDT (10/8)
Length of Visible Light 12h 18m
Length of Day
11h 21m
Waning Gibbous, 46% of the Moon is Illuminated
Oct 8
Waning Gibbous
Oct 15
New
Oct 21
First Quarter
Oct 29
Full
Nov 6
Last Quarter

Hourly Weather History & Observations

Time (EDT) Temp. Windchill Dew Point Humidity Pressure Visibility Wind Dir Wind Speed Gust Speed Precip Events Conditions
12:13 AM 39.2 °F 35.9 °F 34.3 °F 83% 30.11 in 10.0 mi WSW 4.6 mph - N/A   Scattered Clouds
12:34 AM 37.9 °F 34.4 °F 34.3 °F 87% 30.11 in 10.0 mi West 4.6 mph - N/A   Clear
12:54 AM 38.1 °F 34.6 °F 34.5 °F 87% 30.11 in 10.0 mi West 4.6 mph - N/A   Mostly Cloudy
1:13 AM 36.7 °F 34.1 °F 33.4 °F 88% 30.12 in 10.0 mi West 3.5 mph - N/A   Scattered Clouds
1:34 AM 36.5 °F 32.7 °F 33.3 °F 88% 30.12 in 10.0 mi WSW 4.6 mph - N/A   Scattered Clouds
1:54 AM 36.1 °F 32.3 °F 33.3 °F 89% 30.12 in 10.0 mi WSW 4.6 mph - N/A   Scattered Clouds
2:13 AM 35.6 °F 32.8 °F 32.7 °F 89% 30.12 in 10.0 mi SW 3.5 mph - N/A   Clear
2:34 AM 34.2 °F - 32.0 °F 92% 30.12 in 10.0 mi Calm Calm - N/A   Clear
2:53 AM 33.1 °F 28.7 °F 31.1 °F 92% 30.12 in 10.0 mi SW 4.6 mph - N/A   Clear
3:13 AM 34.0 °F 29.8 °F 31.8 °F 92% 30.13 in 10.0 mi WSW 4.6 mph - N/A   Clear
3:34 AM 32.9 °F 28.5 °F 30.9 °F 92% 30.12 in 10.0 mi SW 4.6 mph - N/A   Clear
3:54 AM 33.4 °F 29.1 °F 30.7 °F 90% 30.12 in 10.0 mi SW 4.6 mph - N/A   Clear
4:13 AM 32.0 °F 28.7 °F 29.8 °F 92% 30.12 in 10.0 mi SW 3.5 mph - N/A   Clear
4:34 AM 32.0 °F 28.7 °F 29.3 °F 90% 30.12 in 10.0 mi SW 3.5 mph - N/A   Clear
4:54 AM 32.0 °F 28.7 °F 29.3 °F 90% 30.13 in 10.0 mi SSW 3.5 mph - N/A   Clear
5:14 AM 31.8 °F - 29.1 °F 90% 30.13 in 10.0 mi Calm Calm - N/A   Clear
5:34 AM 31.1 °F - 28.8 °F 91% 30.14 in 10.0 mi Calm Calm - N/A   Clear
5:53 AM 31.1 °F - 28.9 °F 92% 30.14 in 10.0 mi Calm Calm - N/A   Clear
6:14 AM 30.2 °F - 28.0 °F 92% 30.14 in 10.0 mi Calm Calm - N/A   Clear
6:34 AM 28.6 °F - 26.6 °F 92% 30.14 in 10.0 mi Calm Calm - N/A   Clear
6:53 AM 29.8 °F - 28.0 °F 93% 30.15 in 10.0 mi Calm Calm - N/A   Clear
7:14 AM 28.0 °F 22.8 °F 26.2 °F 93% 30.15 in 10.0 mi SSW 4.6 mph - N/A   Clear
7:34 AM 28.4 °F - 26.6 °F 93% 30.15 in 10.0 mi Calm Calm - N/A   Clear
7:53 AM 28.6 °F 23.5 °F 26.8 °F 93% 30.16 in 10.0 mi South 4.6 mph - N/A   Clear
8:14 AM 30.7 °F 26.0 °F 28.9 °F 93% 30.16 in 10.0 mi South 4.6 mph - N/A   Clear
8:34 AM 32.0 °F 26.4 °F 29.8 °F 92% 30.17 in 10.0 mi South 5.8 mph - N/A   Clear
8:53 AM 34.2 °F 29.0 °F 31.3 °F 89% 30.17 in 10.0 mi South 5.8 mph - N/A   Clear
9:14 AM 36.9 °F 31.4 °F 32.0 °F 83% 30.17 in 10.0 mi SSW 6.9 mph - N/A   Clear
9:34 AM 39.7 °F 34.9 °F 32.0 °F 74% 30.17 in 10.0 mi SSW 6.9 mph - N/A   Clear
9:53 AM 41.7 °F 35.6 °F 32.0 °F 68% 30.17 in 10.0 mi SW 10.4 mph - N/A   Clear
10:14 AM 44.2 °F 38.0 °F 31.5 °F 61% 30.17 in 10.0 mi SW 12.7 mph 17.3 mph N/A   Clear
10:33 AM 45.9 °F 40.0 °F 31.3 °F 57% 30.17 in 10.0 mi SW 12.7 mph - N/A   Clear
10:54 AM 47.7 °F - 30.9 °F 52% 30.16 in 10.0 mi SSW 9.2 mph - N/A   Clear
11:14 AM 49.1 °F - 30.7 °F 49% 30.16 in 10.0 mi SSW 9.2 mph - N/A   Clear
11:33 AM 50.7 °F - 30.9 °F 47% 30.15 in 10.0 mi SSW 11.5 mph - N/A   Clear
11:54 AM 50.9 °F - 29.3 °F 43% 30.15 in 10.0 mi SSW 12.7 mph - N/A   Clear
12:14 PM 51.4 °F - 27.7 °F 40% 30.15 in 10.0 mi WSW 9.2 mph 17.3 mph N/A   Clear
12:33 PM 52.3 °F - 26.4 °F 37% 30.15 in 10.0 mi SW 11.5 mph 17.3 mph N/A   Clear
12:54 PM 52.5 °F - 27.1 °F 38% 30.15 in 10.0 mi WSW 13.8 mph 20.7 mph N/A   Clear
1:14 PM 53.2 °F - 27.0 °F 36% 30.14 in 10.0 mi SW 8.1 mph 19.6 mph N/A   Mostly Cloudy
1:54 PM 53.8 °F - 27.9 °F 37% 30.13 in 10.0 mi SW 11.5 mph 21.9 mph N/A   Scattered Clouds
2:14 PM 54.3 °F - 27.3 °F 35% 30.12 in 10.0 mi SW 12.7 mph 18.4 mph N/A   Clear
2:34 PM 54.3 °F - 27.5 °F 36% 30.12 in 10.0 mi SW 11.5 mph 16.1 mph N/A   Scattered Clouds
2:54 PM 54.5 °F - 27.0 °F 35% 30.11 in 10.0 mi SW 9.2 mph 20.7 mph N/A   Scattered Clouds
3:14 PM 54.5 °F - 27.5 °F 35% 30.10 in 10.0 mi SSW 12.7 mph 16.1 mph N/A   Scattered Clouds
3:34 PM 53.4 °F - 27.9 °F 37% 30.10 in 10.0 mi SSW 11.5 mph - N/A   Scattered Clouds
3:54 PM 54.9 °F - 27.5 °F 35% 30.10 in 10.0 mi SSW 9.2 mph 20.7 mph N/A   Scattered Clouds
4:14 PM 54.7 °F - 27.9 °F 36% 30.09 in 10.0 mi South 13.8 mph 18.4 mph N/A   Clear
4:34 PM 54.5 °F - 27.5 °F 35% 30.09 in 10.0 mi SSW 11.5 mph 17.3 mph N/A   Clear
4:54 PM 54.5 °F - 26.8 °F 34% 30.09 in 10.0 mi SW 12.7 mph 18.4 mph N/A   Scattered Clouds
5:14 PM 53.8 °F - 26.6 °F 35% 30.09 in 10.0 mi SSW 10.4 mph 19.6 mph N/A   Clear
5:34 PM 53.4 °F - 27.1 °F 36% 30.08 in 10.0 mi SSW 9.2 mph 17.3 mph N/A   Clear
5:54 PM 52.7 °F - 26.6 °F 36% 30.08 in 10.0 mi South 10.4 mph 18.4 mph N/A   Clear
6:14 PM 51.8 °F - 26.6 °F 38% 30.08 in 10.0 mi South 9.2 mph - N/A   Clear
6:34 PM 50.0 °F - 28.2 °F 43% 30.08 in 10.0 mi South 6.9 mph - N/A   Clear
6:54 PM 48.4 °F - 28.2 °F 46% 30.08 in 10.0 mi SSW 8.1 mph - N/A   Clear
7:15 PM 44.2 °F 40.3 °F 29.3 °F 56% 30.09 in 10.0 mi South 6.9 mph - N/A   Clear
7:34 PM 42.3 °F 38.6 °F 28.6 °F 58% 30.09 in 10.0 mi South 5.8 mph - N/A   Clear
7:54 PM 42.8 °F 39.3 °F 28.6 °F 57% 30.09 in 10.0 mi South 5.8 mph - N/A   Clear
8:15 PM 42.1 °F 37.1 °F 29.3 °F 61% 30.09 in 10.0 mi South 8.1 mph - N/A   Clear
8:34 PM 41.5 °F 37.8 °F 29.3 °F 62% 30.09 in 10.0 mi SSE 5.8 mph - N/A   Clear
9:34 PM 42.3 °F 36.8 °F 31.5 °F 66% 30.10 in 10.0 mi South 9.2 mph - N/A   Clear
9:54 PM 41.9 °F 35.9 °F 31.6 °F 67% 30.10 in 10.0 mi South 10.4 mph - N/A   Clear
10:14 PM 42.3 °F 35.9 °F 31.3 °F 65% 30.10 in 10.0 mi South 11.5 mph - N/A   Clear
10:34 PM 41.7 °F 35.6 °F 31.1 °F 66% 30.10 in 10.0 mi South 10.4 mph - N/A   Clear
10:54 PM 42.1 °F 36.1 °F 30.7 °F 64% 30.10 in 10.0 mi South 10.4 mph - N/A   Clear
11:14 PM 41.9 °F 35.9 °F 30.6 °F 64% 30.10 in 10.0 mi South 10.4 mph - N/A   Clear
11:54 PM 42.1 °F 35.2 °F 30.2 °F 63% 30.10 in 10.0 mi South 12.7 mph - N/A   Clear